[[{"header":{"parameterUnit":"m.s-1","parameterCategory":1,"la1":30.2992,"la2":30.254,"lo1":-89.0895,"lo2":-89.0443,"dy":0.0025,"dx":0.0025,"nx":19,"ny":19,"refTime":"2026-03-11T09:00:00:Z","depth":0,"parameterNumber":2,"parameterNumberName":"U-component_of_WINDS"},"data":[0,0,0,-3.4677,-3.4681,-3.4856,-3.4856,-3.5106,-3.5108,0,0,0,0,0,0,0,0,0,0,0,-3.464,-3.4643,-3.4676,-3.4681,-3.4856,-3.4856,-3.5105,-3.5108,0,0,0,0,0,0,0,0,0,0,0,-3.4639,-3.4642,-3.4645,-3.4682,-3.4856,-3.4856,-3.5104,-3.4964,0,0,0,0,0,0,0,0,0,0,-3.4789,-3.4771,-3.4641,-3.4645,-3.4683,-3.4855,-3.4856,-3.4956,-3.4972,-3.5037,0,-3.5099,0,-3.5108,-3.5126,-3.5127,0,0,0,-3.467,-3.4758,-3.4791,-3.4645,-3.4685,-3.4855,-3.4774,-3.4965,-3.4983,-3.5059,-3.5102,-3.5111,-3.5112,-3.5128,-3.5129,-3.5542,-3.5544,0,0,-3.466,-3.4681,-3.4778,-3.4803,-3.4778,-3.4768,-3.4779,-3.4976,-3.5025,-3.5103,-3.5116,-3.5116,-3.513,-3.5132,-3.5539,-3.5542,0,0,0,-3.464,-3.4674,-3.4702,-3.4794,-3.4823,-3.4774,-3.4786,-3.5016,-3.5023,-3.5119,-3.5119,-3.5131,-3.5135,-3.5536,-3.554,-3.5683,0,0,0,-3.4634,-3.4662,-3.4698,-3.4712,-3.482,-3.4922,-3.4823,-3.5009,-3.5031,-3.5117,-3.5132,-3.5137,-3.5534,-3.5538,-3.5674,-3.5749,0,0,0,-3.4624,-3.4661,-3.4692,-3.4713,-3.4789,-3.4918,-3.4936,-3.5014,-3.5032,-3.5127,-3.5138,-3.5532,-3.5538,-3.5665,-3.5734,-3.5865,0,0,0,-3.4619,-3.4816,-3.4694,-3.4914,-3.4788,-3.5004,-3.4935,-3.5095,-3.5194,-3.5133,-3.5534,-3.554,-3.5662,-3.5726,-3.5856,-3.5981,-3.6034,0,0,-3.4879,-3.4848,-3.4976,-3.4872,-3.5116,-3.4976,-3.5241,-3.5312,-3.5302,-3.5462,-3.5472,-3.5677,-3.5733,-3.5863,-3.6319,-3.6362,0,0,0,-3.5065,-3.5158,-3.5217,-3.5312,-3.5371,-3.5427,-3.5455,-3.5481,-3.5616,-3.5388,-3.5757,-3.579,-3.5865,-3.5924,-3.596,-3.6025,-3.5567,-3.5566,-3.5566,-3.5466,-3.5441,-3.5651,-3.5648,-3.5741,-3.5767,-3.584,-3.5879,-3.5828,-3.5915,-3.5965,-3.6244,-3.6314,-3.6341,-3.6408,-3.6025,-3.6026,-3.6026,-3.6027,-3.5847,-3.5975,-3.59,-3.6077,-3.605,-3.6199,-3.6231,-3.6189,-3.6324,-3.6205,-3.6271,-3.6146,-3.6388,-3.6446,-3.6037,-3.6036,-3.6034,-3.6033,-3.6032,-3.6109,-3.6166,-3.6193,-3.6328,-3.6434,-3.6422,-3.6555,-3.6525,-3.6497,-3.6561,-3.6611,-3.6608,-3.6605,-3.6586,-3.6587,-3.6588,-3.6589,-3.659,-3.659,-3.6373,-3.6398,-3.6514,-3.6591,-3.6648,-3.6718,-3.6744,-3.6799,-3.6853,-3.682,-3.6821,-3.6763,-3.6415,-3.633,-3.6605,-3.6603,-3.6601,-3.6599,-3.6598,-3.6775,-3.6678,-3.6858,-3.6914,-3.7002,-3.711,-3.7067,-3.7182,-3.7222,-3.7289,-3.7215,-3.6962,-3.6929,-3.69,-3.683,-3.7218,-3.7218,-3.7218,-3.7218,-3.6999,-3.6977,-3.7154,-3.7246,-3.7333,-3.7313,-3.7517,-3.7538,-3.7545,-3.7569,-3.7507,-3.741,-3.7382,-3.7365,-3.7327,-3.7261,-3.775,-3.7751,-3.7751,-3.7246,-3.7231,-3.7412,-3.7416,-3.7482,-3.7539,-3.773,-3.7839,-3.7827,-3.7772,-3.7587,-3.7565,-3.7408,-3.7357,-3.7303,-3.7243,-3.7122,0,0]},{"header":{"parameterUnit":"m.s-1","parameterCategory":1,"la1":30.2992,"la2":30.254,"lo1":-89.0895,"lo2":-89.0443,"dy":0.0025,"dx":0.0025,"nx":19,"ny":19,"refTime":"2026-03-11T09:00:00:Z","depth":0,"parameterNumber":3,"parameterNumberName":"V-component_of_WINDS"},"data":[0,0,0,-6.3777,-6.3782,-6.3989,-6.3989,-6.4271,-6.4274,0,0,0,0,0,0,0,0,0,0,0,-6.3729,-6.3732,-6.3776,-6.3782,-6.3989,-6.3989,-6.427,-6.4274,0,0,0,0,0,0,0,0,0,0,0,-6.3728,-6.3731,-6.3734,-6.3783,-6.3988,-6.3989,-6.427,-6.4107,0,0,0,0,0,0,0,0,0,0,-6.3903,-6.3874,-6.3731,-6.3734,-6.3784,-6.3988,-6.3989,-6.4099,-6.4117,-6.4186,0,-6.4253,0,-6.4268,-6.4294,-6.4295,0,0,0,-6.3771,-6.3859,-6.3902,-6.3735,-6.3786,-6.3988,-6.3892,-6.4109,-6.4129,-6.421,-6.4257,-6.4267,-6.4273,-6.4296,-6.4297,-6.4738,-6.474,0,0,-6.3759,-6.3774,-6.3888,-6.3916,-6.3889,-6.3886,-6.3899,-6.4121,-6.4172,-6.4258,-6.4273,-6.4278,-6.4298,-6.43,-6.4735,-6.4738,0,0,0,-6.3734,-6.3766,-6.3803,-6.3905,-6.3941,-6.3892,-6.3907,-6.4162,-6.4173,-6.4276,-6.4281,-6.43,-6.4303,-6.4732,-6.4736,-6.488,0,0,0,-6.3727,-6.3751,-6.3799,-6.381,-6.3938,-6.4055,-6.3944,-6.4158,-6.4183,-6.428,-6.43,-6.4306,-6.4729,-6.4734,-6.4869,-6.4945,0,0,0,-6.3711,-6.3749,-6.3784,-6.381,-6.39,-6.4051,-6.4075,-6.4163,-6.4186,-6.4295,-6.4307,-6.4728,-6.4734,-6.4861,-6.493,-6.5066,0,0,0,-6.3698,-6.3908,-6.3787,-6.4022,-6.3899,-6.4139,-6.4073,-6.4251,-6.4361,-6.4301,-6.473,-6.4736,-6.4858,-6.4921,-6.5056,-6.5183,-6.5237,0,0,-6.397,-6.3941,-6.4078,-6.3976,-6.4243,-6.4106,-6.4392,-6.4478,-6.4473,-6.4649,-6.4659,-6.4873,-6.4929,-6.5064,-6.5534,-6.5577,0,0,0,-6.4169,-6.4269,-6.4336,-6.4443,-6.4515,-6.4582,-6.4624,-6.4655,-6.4803,-6.4568,-6.4957,-6.499,-6.5068,-6.5128,-6.5165,-6.5231,-6.4764,-6.4763,-6.4763,-6.4577,-6.4561,-6.4787,-6.4796,-6.49,-6.494,-6.5022,-6.5071,-6.5023,-6.5115,-6.5168,-6.5456,-6.5527,-6.5554,-6.5623,-6.5233,-6.5233,-6.5234,-6.5234,-6.4975,-6.5113,-6.5045,-6.524,-6.5221,-6.5383,-6.5428,-6.5389,-6.5535,-6.5415,-6.5483,-6.5354,-6.5602,-6.5661,-6.5245,-6.5243,-6.5241,-6.524,-6.524,-6.5241,-6.5304,-6.534,-6.5492,-6.561,-6.561,-6.5754,-6.5731,-6.5709,-6.5776,-6.5829,-6.5826,-6.5821,-6.5803,-6.5804,-6.5805,-6.5806,-6.5806,-6.5807,-6.5504,-6.5539,-6.5665,-6.5759,-6.5823,-6.5905,-6.5945,-6.6007,-6.607,-6.6041,-6.6041,-6.5984,-6.5629,-6.5541,-6.5822,-6.582,-6.5818,-6.5816,-6.5815,-6.5916,-6.5819,-6.6014,-6.6079,-6.6185,-6.6303,-6.627,-6.6399,-6.6446,-6.6517,-6.6445,-6.6186,-6.6154,-6.6124,-6.6051,-6.6448,-6.6448,-6.6448,-6.6448,-6.6142,-6.6122,-6.6316,-6.6422,-6.6521,-6.6511,-6.6729,-6.6761,-6.6778,-6.6805,-6.6744,-6.6644,-6.6615,-6.66,-6.656,-6.6492,-6.6991,-6.6992,-6.6992,-6.6394,-6.6383,-6.6576,-6.6593,-6.6674,-6.6742,-6.6946,-6.7067,-6.7065,-6.7014,-6.6826,-6.6803,-6.6642,-6.6591,-6.6538,-6.6476,-6.635,0,0]}]]